User: anonymous   Login
Location: Unspecified
(0.0000°N, 0.0000°E)
Time: 16:42:16
(UTC+00:00)
Language:

Explorer 11/Cluster Stage 4 - Orbit

View from above orbital plane
View from above orbital plane
View from above satellite
View from above satellite

Ground track
Ground track

The orbit data is extracted from the following two-line orbital elements,

1 00107U 61013A   15063.06791104  .00005421  00000-0  73208-3 0  9997
2 00107 028.7867 282.5980 0557070 082.8985 073.3629 14.06384575693164
Epoch (UTC): 04 March 2015 01:37:47
Eccentricity: 0.0557070
inclination: 28.7867°
perigee height: 468 km
apogee height: 1275 km
right ascension of ascending node: 282.5980°
argument of perigee: 82.8985°
revolutions per day: 14.06384575
mean anomaly at epoch: 73.3629°
orbit number at epoch: 69316

The dashed part of the orbit path shows where the satellite is in the earth's shadow,  

DLR